This demonstration page uses our WeatherBlox Daily Observations layout. Learn more.

Left ArrowRight Arrow

Hourly Observations for September 22, 2022

Temp ( °F °C ) Dew Point ( °F °C ) Humidity (%) Winds ( mph kmh ) Pressure ( in mb ) Visibility ( mi km ) Precip ( " mm )
12:51 am 00:51 Clear 70 21.1 64 17.8 81 81 NW 3 6 29.88 1012 10 16 0.00 0.00
1:51 am 01:51 Clear 68 20 64 17.8 87 87 Calm 29.88 1012 10 16 0.00 0.00
2:51 am 02:51 Clear 67 19.4 63 17.2 87 87 Calm 29.88 1012 10 16 0.00 0.00
3:51 am 03:51 Clear 65 18.3 63 17.2 93 93 Calm 29.88 1012 10 16 0.00 0.00
4:51 am 04:51 Clear 65 18.3 62 16.7 90 90 Calm 29.89 1012 10 16 0.00 0.00
5:51 am 05:51 Clear 64 17.8 62 16.7 93 93 N 3 6 29.92 1013 10 16 0.00 0.00
6:51 am 06:51 Sunny 64 17.8 62 16.7 93 93 Calm 29.94 1014 10 16 0.00 0.00
7:51 am 07:51 Sunny 71 21.7 65 18.3 81 81 Calm 29.95 1014 10 16 0.00 0.00
8:51 am 08:51 Mostly Cloudy 75 23.9 67 19.4 76 76 ESE 5 7 29.95 1014 10 16 0.00 0.00
9:51 am 09:51 Sunny 80 26.7 65 18.3 60 60 Calm 29.94 1014 10 16 0.00 0.00
10:51 am 10:51 Sunny 84 28.9 64 17.8 51 51 WSW 3 6 29.91 1013 10 16 0.00 0.00
11:51 am 11:51 Sunny 87 30.6 64 17.8 46 46 VRB 5 7 29.88 1012 10 16 0.00 0.00
12:51 pm 12:51 Sunny 90 32.2 63 17.2 41 41 VRB 6 9 29.85 1011 10 16 0.00 0.00
1:51 pm 13:51 Sunny 92 33.3 62 16.7 37 37 WSW 3 6 29.81 1009 10 16 0.00 0.00
2:51 pm 14:51 Sunny 93 33.9 60 15.6 34 34 WNW 9 15 29.78 1009 10 16 0.00 0.00
3:51 pm 15:51 Sunny 91 32.8 59 15 34 34 WNW 8 13 29.77 1008 10 16 0.00 0.00
4:02 pm 16:02 Sunny with Nearby Thunderstorms 91 32.8 59 15 34 34 WNW 9 15 29.65 1004 10 16 0.00 0.00
4:28 pm 16:28 Sunny with Thunderstorms 82 27.8 61 16.1 49 49 SSW 16 26 29.72 1007 10 16 0.00 0.00
4:37 pm 16:37 Sunny with Nearby Thunderstorms 82 27.8 62 16.7 51 51 S 18 30 29.72 1007 10 16 0.00 0.00
4:51 pm 16:51 Partly Cloudy with Thunderstorms 79 26.1 60 15.6 52 52 S 14 22 29.82 1010 10 16 0.00 0.00
5:16 pm 17:16 Partly Cloudy with Nearby Thunderstorms 76 24.4 69 20.6 79 79 S 7 11 29.76 1008 10 16 0.01 0.25
5:30 pm 17:30 Mostly Cloudy with Light Rain 77 25 70 21.1 79 79 W 12 19 29.75 1008 10 16 0.02 0.51
5:51 pm 17:51 Mostly Cloudy 77 25 66 18.9 69 69 WNW 10 17 29.82 1010 10 16 0.02 0.51
6:35 pm 18:35 Mostly Clear with Nearby Thunderstorms 76 24.4 63 17.2 64 64 WNW 15 24 29.78 1008 10 16 0.01 0.13
6:51 pm 18:51 Clear 76 24.4 63 17.2 64 64 NW 13 20 29.84 1011 10 16 0.01 0.13
7:51 pm 19:51 Clear 77 25 62 16.7 60 60 W 9 15 29.84 1011 10 16 0.00 0.00
8:03 pm 20:03 Mostly Clear with Nearby Thunderstorms 78 25.6 61 16.1 56 56 Calm 29.80 1009 10 16 0.00 0.00
8:18 pm 20:18 Mostly Cloudy 78 25.6 61 16.1 56 56 Calm 29.80 1009 10 16 0.00 0.00
8:51 pm 20:51 Clear 75 23.9 63 17.2 66 66 SW 7 11 29.86 1011 10 16 0.00 0.00
9:51 pm 21:51 Mostly Cloudy 76 24.4 62 16.7 62 62 N 6 9 29.86 1011 10 16 0.00 0.00
10:28 pm 22:28 Cloudy with Nearby Thunderstorms 73 22.8 65 18.3 76 76 S 10 17 29.89 1012 10 16 0.01 0.13
10:51 pm 22:51 Mostly Cloudy with Nearby Thunderstorms 75 23.9 64 17.8 69 69 WSW 8 13 29.90 1013 10 16 0.01 0.13
10:59 pm 22:59 Cloudy with Thunderstorms 74 23.3 64 17.8 71 71 W 7 11 29.87 1012 10 16 0.00 0.00
11:24 pm 23:24 Cloudy with Nearby Thunderstorms 74 23.3 65 18.3 74 74 NE 6 9 29.91 1013 10 16 0.00 0.00
11:40 pm 23:40 Cloudy with Thunderstorms 73 22.8 65 18.3 76 76 S 10 17 29.96 1014 10 16 0.01 0.13
11:51 pm 23:51 Cloudy with Strong Thunderstorms 67 19.4 65 18.3 93 93 N 16 26 29.92 1013 10 16 0.15 3.81

Powered by Vaisala Xweather